BEIDOU-2 IGSO-7

Last updated on Sat Oct 25 2025 00:02:51 GMT+0000 (Coordinated Universal Time)

1 43539U 18057A 25297.58090006 -.00000075 00000+0 00000+0 0 9999 2 43539 55.1687 165.1035 0091792 235.6764 314.1237 1.00272358 26760
UTC large
Height (km)
Speed (km/s)
/
Latitude / Longitude
Inclination (degrees)
Orbital Period (minutes)
Azimuth
Elevation
Range (km)
Doppler Factor

Next 0 passes for location: London (51.5072 / 0.1276)

Sorry there are no passes over London.